Location: Artiguedieu
(43.5000°N, 0.5454°E)
Time: 10:35:09
(UTC+00:00)

Vanguard 1 Rocket - Pass Details

Date: 05 August 2021
Orbit: 650 x 4226 km, 34.3° (Epoch: 24 September)

Event Time Altitude Azimuth Distance (km) Brightness Sun altitude
Rises 11:42:45 0° 263° (W) 7,800 12.1 63.0°
Reaches altitude 10° 11:48:51 10° 260° (W) 6,311 11.8 63.1°
Maximum altitude 12:05:45 55° 190° (S) 2,373 12.0 63.3°
Drops below altitude 10° 12:14:25 10° 115° (ESE) 3,397 10.6 63.2°
Sets 12:16:42 0° 111° (ESE) 4,075 10.8 63.2°
